User: anonymous   Login
Location: Unspecified
(0.0000°N, 0.0000°E)
Time: 12:41:22
(UTC+00:00)
Language:

Kopernikus - Orbit

View from above orbital plane
View from above orbital plane
View from above satellite
View from above satellite

Ground track
Ground track

The orbit data is extracted from the following two-line orbital elements,

1 20041U 89041B   18199.90841164 -.00000390  00000-0  00000+0 0  9992
2 20041  14.9166  11.2709 0013383 239.4457 120.4482  1.00666104 95399
Epoch (UTC): 18 July 2018 21:48:06
Eccentricity: 0.0013383
inclination: 14.9166°
perigee height: 35620 km
apogee height: 35732 km
right ascension of ascending node: 11.2709°
argument of perigee: 239.4457°
revolutions per day: 1.00666104
mean anomaly at epoch: 120.4482°
orbit number at epoch: 9539

The dashed part of the orbit path shows where the satellite is in the earth's shadow,  

DLR